• In Hungary
  • List of Countries
  • For 7 days
  • Water Temperature
  • Satellite Maps
  • Weather Map
  • News
  • Weather Widgets
  • user-avatar
    Login

    Hourly Weather Tulsa

    Today, 24 February, Saturday

    Time Temperature Precipitation Wind Pressure Humidity
    00:00 +5°C° 0 mm 2 mps 742 mmHg 94%
    01:00 +5°C° 0.1 mm 2 mps 742 mmHg 94%
    02:00 +5°C° 0.1 mm 2 mps 742 mmHg 94%
    03:00 +5°C° 0.1 mm 2 mps 741 mmHg 94%
    04:00 +5°C° 0 mm 2 mps 741 mmHg 95%
    05:00 +6°C° 0 mm 1 mps 741 mmHg 95%
    06:00 +5°C° 0 mm 0 mps 740 mmHg 94%
    07:00 +5°C° 0.3 mm 0 mps 740 mmHg 94%
    08:00 +5°C° 0.3 mm 0 mps 739 mmHg 93%
    09:00 +6°C° 0.3 mm 0 mps 739 mmHg 93%
    10:00 +7°C° 1.6 mm 1 mps 738 mmHg 93%
    11:00 +6°C° 1.6 mm 2 mps 738 mmHg 94%
    12:00 +5°C° 1.6 mm 3 mps 737 mmHg 94%
    13:00 +7°C° 0.1 mm 3 mps 737 mmHg 88%
    14:00 +8°C° 0.1 mm 4 mps 737 mmHg 82%
    15:00 +10°C° 0.1 mm 4 mps 737 mmHg 76%
    16:00 +10°C° 0 mm 4 mps 738 mmHg 75%
    17:00 +10°C° 0 mm 4 mps 738 mmHg 74%
    18:00 +10°C° 0 mm 3 mps 739 mmHg 74%
    19:00 +9°C° 0 mm 3 mps 740 mmHg 74%
    20:00 +7°C° 0 mm 3 mps 740 mmHg 75%
    21:00 +5°C° 0 mm 3 mps 741 mmHg 75%
    22:00 +6°C° 0 mm 2 mps 741 mmHg 74%
    23:00 +6°C° 0 mm 1 mps 742 mmHg 74%

    Tomorrow, 25 February, Sunday

    Time Temperature Precipitation Wind Pressure Humidity
    00:00 +6°C° 0 mm 1 mps 742 mmHg 73%
    01:00 +4°C° 0 mm 0 mps 742 mmHg 72%
    02:00 +4°C° 0 mm 0 mps 742 mmHg 72%
    03:00 +4°C° 0 mm 0 mps 742 mmHg 71%
    04:00 +3°C° 0 mm 0 mps 743 mmHg 72%
    05:00 +3°C° 0 mm 0 mps 743 mmHg 72%
    06:00 +4°C° 0 mm 1 mps 743 mmHg 72%
    07:00 +5°C° 0 mm 1 mps 744 mmHg 70%
    08:00 +6°C° 0 mm 1 mps 744 mmHg 68%
    09:00 +6°C° 0 mm 2 mps 745 mmHg 65%
    10:00 +8°C° 0 mm 2 mps 745 mmHg 57%
    11:00 +10°C° 0 mm 3 mps 744 mmHg 50%
    12:00 +12°C° 0 mm 4 mps 744 mmHg 42%
    13:00 +13°C° 0 mm 4 mps 744 mmHg 41%
    14:00 +14°C° 0 mm 4 mps 743 mmHg 40%
    15:00 +16°C° 0 mm 5 mps 742 mmHg 40%
    16:00 +15°C° 0 mm 4 mps 742 mmHg 45%
    17:00 +14°C° 0 mm 3 mps 742 mmHg 50%
    18:00 +14°C° 0 mm 2 mps 742 mmHg 55%
    19:00 +13°C° 0 mm 2 mps 743 mmHg 59%
    20:00 +12°C° 0 mm 2 mps 743 mmHg 63%
    21:00 +10°C° 0 mm 2 mps 744 mmHg 67%
    22:00 +9°C° 0.2 mm 2 mps 744 mmHg 71%
    23:00 +9°C° 0.2 mm 2 mps 745 mmHg 74%

    Day after tomorrow, 26 February, Monday

    Time Temperature Precipitation Wind Pressure Humidity
    00:00 +8°C° 0.2 mm 2 mps 745 mmHg 77%
    01:00 +8°C° 0 mm 2 mps 745 mmHg 77%
    02:00 +7°C° 0 mm 2 mps 746 mmHg 76%
    03:00 +7°C° 0 mm 2 mps 746 mmHg 75%
    04:00 +6°C° 0 mm 2 mps 746 mmHg 75%
    05:00 +6°C° 0 mm 2 mps 746 mmHg 75%
    06:00 +6°C° 0 mm 1 mps 746 mmHg 75%
    07:00 +7°C° 0 mm 1 mps 747 mmHg 71%
    08:00 +8°C° 0 mm 1 mps 748 mmHg 67%
    09:00 +10°C° 0 mm 1 mps 748 mmHg 63%
    10:00 +12°C° 0 mm 1 mps 748 mmHg 53%
    11:00 +14°C° 0 mm 1 mps 748 mmHg 44%
    12:00 +16°C° 0 mm 1 mps 748 mmHg 35%
    13:00 +17°C° 0 mm 2 mps 748 mmHg 31%
    14:00 +18°C° 0 mm 2 mps 747 mmHg 28%
    15:00 +18°C° 0 mm 2 mps 746 mmHg 24%
    16:00 +17°C° 0 mm 2 mps 746 mmHg 31%
    17:00 +16°C° 0 mm 2 mps 746 mmHg 37%
    18:00 +15°C° 0 mm 2 mps 746 mmHg 43%
    19:00 +13°C° 0 mm 3 mps 746 mmHg 50%
    20:00 +12°C° 0 mm 3 mps 746 mmHg 57%
    21:00 +11°C° 0 mm 3 mps 746 mmHg 64%
    22:00 +11°C° 0 mm 3 mps 746 mmHg 70%
    23:00 +11°C° 0 mm 4 mps 746 mmHg 76%

    27 February, Tuesday

    Time Temperature Precipitation Wind Pressure Humidity
    00:00 +10°C° 0 mm 4 mps 746 mmHg 82%
    01:00 +10°C° 0 mm 4 mps 746 mmHg 83%
    02:00 +10°C° 0 mm 4 mps 746 mmHg 85%
    03:00 +8°C° 0 mm 4 mps 745 mmHg 86%
    04:00 +8°C° 0 mm 4 mps 745 mmHg 87%
    05:00 +8°C° 0 mm 4 mps 745 mmHg 87%
    06:00 +8°C° 0 mm 4 mps 745 mmHg 88%
    07:00 +9°C° 0 mm 5 mps 745 mmHg 84%
    08:00 +10°C° 0 mm 6 mps 746 mmHg 80%
    09:00 +11°C° 0 mm 6 mps 746 mmHg 76%
    10:00 +13°C° 0.1 mm 6 mps 745 mmHg 73%
    11:00 +14°C° 0.1 mm 6 mps 745 mmHg 70%
    12:00 +15°C° 0.1 mm 7 mps 744 mmHg 67%
    13:00 +15°C° 0.8 mm 6 mps 743 mmHg 72%
    14:00 +15°C° 0.8 mm 6 mps 742 mmHg 77%
    15:00 +15°C° 0.8 mm 6 mps 741 mmHg 82%
    16:00 +15°C° 0.2 mm 5 mps 741 mmHg 85%
    17:00 +15°C° 0.2 mm 5 mps 740 mmHg 88%
    18:00 +14°C° 0.2 mm 5 mps 740 mmHg 91%
    19:00 +14°C° 0.1 mm 5 mps 740 mmHg 92%
    20:00 +14°C° 0.1 mm 4 mps 740 mmHg 93%
    21:00 +14°C° 0.1 mm 4 mps 739 mmHg 95%
    22:00 +14°C° 0.1 mm 4 mps 739 mmHg 95%
    23:00 +14°C° 0.1 mm 3 mps 739 mmHg 96%

    28 February, Wednesday

    Time Temperature Precipitation Wind Pressure Humidity
    00:00 +13°C° 0.1 mm 3 mps 738 mmHg 97%
    01:00 +14°C° 0.1 mm 3 mps 738 mmHg 97%
    02:00 +14°C° 0.1 mm 3 mps 737 mmHg 97%
    03:00 +16°C° 0.1 mm 3 mps 737 mmHg 97%
    04:00 +16°C° 0.2 mm 3 mps 736 mmHg 97%
    05:00 +16°C° 0.2 mm 3 mps 736 mmHg 97%
    06:00 +16°C° 0.2 mm 3 mps 736 mmHg 97%
    07:00 +17°C° 0.7 mm 4 mps 735 mmHg 92%
    08:00 +17°C° 0.7 mm 5 mps 735 mmHg 86%
    09:00 +19°C° 0.7 mm 6 mps 735 mmHg 81%
    10:00 +20°C° 0.3 mm 8 mps 734 mmHg 74%
    11:00 +22°C° 0.3 mm 9 mps 733 mmHg 66%
    12:00 +23°C° 0.3 mm 11 mps 733 mmHg 59%
    13:00 +23°C° 0.7 mm 10 mps 732 mmHg 58%
    14:00 +23°C° 0.7 mm 10 mps 731 mmHg 57%
    15:00 +23°C° 0.7 mm 9 mps 730 mmHg 56%
    16:00 +22°C° 0.2 mm 8 mps 730 mmHg 51%
    17:00 +21°C° 0.2 mm 7 mps 730 mmHg 46%
    18:00 +20°C° 0.2 mm 6 mps 730 mmHg 41%
    19:00 +17°C° 0 mm 6 mps 731 mmHg 45%
    20:00 +16°C° 0 mm 6 mps 731 mmHg 48%
    21:00 +15°C° 0 mm 6 mps 732 mmHg 52%
    22:00 +12°C° 0 mm 7 mps 733 mmHg 59%
    23:00 +9°C° 0 mm 8 mps 734 mmHg 65%

    1 March, Thursday

    Time Temperature Precipitation Wind Pressure Humidity
    00:00 +6°C° 0 mm 8 mps 735 mmHg 72%
    01:00 +6°C° 0 mm 9 mps 736 mmHg 69%
    02:00 +5°C° 0 mm 9 mps 738 mmHg 66%
    03:00 +3°C° 0 mm 9 mps 739 mmHg 63%
    04:00 +2°C° 0 mm 8 mps 740 mmHg 62%
    05:00 +3°C° 0 mm 7 mps 741 mmHg 60%
    06:00 +3°C° 0 mm 7 mps 742 mmHg 59%
    07:00 +3°C° 0 mm 7 mps 743 mmHg 54%
    08:00 +4°C° 0 mm 7 mps 744 mmHg 50%
    09:00 +4°C° 0 mm 7 mps 745 mmHg 45%
    10:00 +7°C° 0 mm 6 mps 745 mmHg 41%
    11:00 +9°C° 0 mm 6 mps 746 mmHg 37%
    12:00 +10°C° 0 mm 6 mps 746 mmHg 34%
    13:00 +12°C° 0 mm 5 mps 746 mmHg 33%
    14:00 +13°C° 0 mm 5 mps 746 mmHg 32%
    15:00 +14°C° 0 mm 5 mps 746 mmHg 31%
    16:00 +13°C° 0 mm 4 mps 746 mmHg 34%
    17:00 +12°C° 0 mm 3 mps 746 mmHg 38%
    18:00 +13°C° 0 mm 2 mps 746 mmHg 41%
    19:00 +12°C° 0 mm 1 mps 746 mmHg 42%
    20:00 +11°C° 0 mm 1 mps 747 mmHg 43%
    21:00 +10°C° 0 mm 1 mps 747 mmHg 44%
    22:00 +10°C° 0 mm 1 mps 747 mmHg 45%
    23:00 +9°C° 0 mm 1 mps 747 mmHg 46%
    Show more